| time (UTC) | temp C | wind direction | speed KPH | gust KPH | rain 1hr cm | rain 24hr cm | rain mn cm | humidity % | barometer mb |
| 20260508231704 | 18 | 249 | 0.0 | 4.8 | 0.00 | 0.00 | 0.00 | 73 | 1012.4 |
| 20260508231203 | 19 | 229 | 0.0 | 1.6 | 0.00 | 0.00 | 0.00 | 72 | 1012.2 |
| 20260508230703 | 19 | 207 | 0.0 | 3.2 | 0.00 | 0.00 | 0.00 | 72 | 1012.1 |
| 20260508230203 | 19 | 251 | 0.0 | 3.2 | 0.00 | 0.00 | 0.00 | 72 | 1012.0 |
| 20260508225704 | 19 | 234 | 0.0 | 0.0 | 0.00 | 0.00 | 0.00 | 71 | 1011.7 |
| 20260508225203 | 19 | 232 | 0.0 | 6.4 | 0.00 | 0.00 | 0.00 | 71 | 1011.7 |
| 20260508224703 | 19 | 242 | 0.0 | 6.4 | 0.00 | 0.00 | 0.00 | 71 | 1011.7 |
| 20260508224204 | 19 | 241 | 0.0 | 6.4 | 0.00 | 0.00 | 0.00 | 71 | 1011.4 |
| 20260508223702 | 19 | 143 | 0.0 | 6.4 | 0.00 | 0.00 | 0.00 | 73 | 1011.4 |
| 20260508223203 | 19 | 229 | 0.0 | 4.8 | 0.00 | 0.00 | 0.00 | 73 | 1011.7 |
| 20260508222704 | 20 | 228 | 0.0 | 0.0 | 0.00 | 0.00 | 0.00 | 72 | 1011.6 |
| 20260508222203 | 20 | 229 | 0.0 | 4.8 | 0.00 | 0.00 | 0.00 | 72 | 1011.7 |
| 20260508221203 | 20 | 220 | 0.0 | 9.7 | 0.00 | 0.00 | 0.00 | 70 | 1011.9 |
| 20260508220702 | 20 | 237 | 0.0 | 9.7 | 0.00 | 0.00 | 0.00 | 68 | 1011.8 |
| 20260508220203 | 20 | 269 | 0.0 | 0.0 | 0.00 | 0.00 | 0.00 | 71 | 1012.0 |
| 20260508215701 | 20 | 267 | 0.0 | 3.2 | 0.00 | 0.00 | 0.00 | 69 | 1011.9 |
| 20260508215202 | 20 | 217 | 0.0 | 3.2 | 0.00 | 0.00 | 0.00 | 68 | 1011.8 |
| 20260508214659 | 20 | 186 | 0.0 | 0.0 | 0.00 | 0.00 | 0.00 | 70 | 1011.7 |
| 20260508214159 | 20 | 186 | 0.0 | 0.0 | 0.00 | 0.00 | 0.00 | 68 | 1011.7 |
| 20260508213659 | 20 | 186 | 0.0 | 0.0 | 0.00 | 0.00 | 0.00 | 69 | 1011.8 |
| 20260508213159 | 20 | 133 | 0.0 | 0.0 | 0.00 | 0.00 | 0.00 | 68 | 1011.7 |
| 20260508212659 | 20 | 132 | 0.0 | 0.0 | 0.00 | 0.00 | 0.00 | 67 | 1011.6 |
| 20260508212159 | 20 | 141 | 0.0 | 0.0 | 0.00 | 0.00 | 0.00 | 66 | 1011.7 |
| 20260508211200 | 20 | 209 | 0.0 | 0.0 | 0.00 | 0.00 | 0.00 | 66 | 1012.1 |
| 20260508210700 | 20 | 209 | 0.0 | 3.2 | 0.00 | 0.00 | 0.00 | 65 | 1012.1 |
| 20260508210158 | 20 | 209 | 0.0 | 3.2 | 0.00 | 0.00 | 0.00 | 66 | 1012.2 |
| 20260508205659 | 20 | 128 | 0.0 | 1.6 | 0.00 | 0.00 | 0.00 | 65 | 1012.2 |
| 20260508205200 | 20 | 128 | 0.0 | 1.6 | 0.00 | 0.00 | 0.00 | 65 | 1012.0 |
| 20260508204659 | 21 | 121 | 0.0 | 3.2 | 0.00 | 0.00 | 0.00 | 64 | 1012.0 |
| 20260508204159 | 21 | 155 | 0.0 | 4.8 | 0.00 | 0.00 | 0.00 | 63 | 1012.1 |
| 20260508203658 | 21 | 188 | 0.0 | 4.8 | 0.00 | 0.00 | 0.00 | 62 | 1012.2 |
| 20260508203158 | 21 | 227 | 0.0 | 0.0 | 0.00 | 0.00 | 0.00 | 62 | 1012.0 |
| 20260508202658 | 21 | 228 | 0.0 | 1.6 | 0.00 | 0.00 | 0.00 | 63 | 1012.1 |
| 20260508202158 | 21 | 199 | 0.0 | 1.6 | 0.00 | 0.00 | 0.00 | 63 | 1012.0 |
| 20260508201658 | 21 | 178 | 0.0 | 0.0 | 0.00 | 0.00 | 0.00 | 60 | 1011.9 |
| 20260508201158 | 21 | 144 | 0.0 | 3.2 | 0.00 | 0.00 | 0.00 | 60 | 1011.9 |
| 20260508200656 | 21 | 206 | 0.0 | 3.2 | 0.00 | 0.00 | 0.00 | 59 | 1012.1 |
| 20260508195657 | 21 | 123 | 0.0 | 4.8 | 0.00 | 0.03 | 0.00 | 58 | 1012.3 |
| 20260508195157 | 21 | 197 | 0.0 | 4.8 | 0.00 | 0.03 | 0.00 | 57 | 1012.3 |
| 20260508194654 | 21 | 218 | 0.0 | 4.8 | 0.00 | 0.03 | 0.00 | 58 | 1012.1 |
| 20260508194151 | 21 | 36 | 0.0 | 0.0 | 0.00 | 0.03 | 0.00 | 55 | 1012.2 |
| 20260508193149 | 21 | 150 | 0.0 | 8.0 | 0.00 | 0.03 | 0.00 | 57 | 1012.4 |
| 20260508192649 | 21 | 169 | 0.0 | 4.8 | 0.00 | 0.03 | 0.00 | 55 | 1012.5 |
| 20260508192148 | 21 | 122 | 0.0 | 4.8 | 0.00 | 0.03 | 0.00 | 55 | 1012.6 |
| 20260508191648 | 21 | 80 | 0.0 | 0.0 | 0.00 | 0.03 | 0.00 | 56 | 1012.6 |
| 20260508191149 | 21 | 137 | 0.0 | 0.0 | 0.00 | 0.03 | 0.00 | 57 | 1012.7 |
| 20260508190648 | 21 | 145 | 0.0 | 6.4 | 0.00 | 0.03 | 0.00 | 58 | 1012.8 |
| 20260508190148 | 21 | 138 | 0.0 | 6.4 | 0.00 | 0.03 | 0.00 | 57 | 1012.8 |
| 20260508185649 | 21 | 202 | 0.0 | 6.4 | 0.00 | 0.03 | 0.00 | 56 | 1012.8 |
| 20260508184649 | 22 | 182 | 0.0 | 6.4 | 0.00 | 0.03 | 0.00 | 53 | 1012.8 |
| 20260508184147 | 21 | 224 | 0.0 | 3.2 | 0.00 | 0.03 | 0.00 | 56 | 1013.0 |
| 20260508183647 | 21 | 81 | 1.6 | 8.0 | 0.00 | 0.03 | 0.00 | 55 | 1013.0 |
| 20260508183147 | 21 | 226 | 1.6 | 8.0 | 0.00 | 0.03 | 0.00 | 55 | 1013.2 |
| 20260508182646 | 21 | 307 | 1.6 | 8.0 | 0.00 | 0.03 | 0.00 | 53 | 1013.3 |
| 20260508181146 | 22 | 55 | 0.0 | 8.0 | 0.00 | 0.03 | 0.00 | 54 | 1013.3 |
| 20260508180646 | 21 | 140 | 1.6 | 8.0 | 0.00 | 0.03 | 0.00 | 55 | 1013.4 |
| 20260508180146 | 21 | 232 | 1.6 | 8.0 | 0.00 | 0.03 | 0.00 | 54 | 1013.6 |
| 20260508175646 | 21 | 261 | 0.0 | 8.0 | 0.00 | 0.03 | 0.00 | 54 | 1013.6 |
| 20260508174644 | 21 | 278 | 0.0 | 6.4 | 0.00 | 0.03 | 0.00 | 54 | 1013.6 |
| 20260508173644 | 21 | 82 | 1.6 | 6.4 | 0.00 | 0.03 | 0.00 | 56 | 1013.6 |
| 20260508173144 | 21 | 140 | 1.6 | 6.4 | 0.00 | 0.03 | 0.00 | 55 | 1013.7 |
| 20260508172645 | 21 | 144 | 1.6 | 9.7 | 0.00 | 0.03 | 0.00 | 56 | 1013.9 |
| 20260508172143 | 21 | 111 | 1.6 | 9.7 | 0.00 | 0.03 | 0.00 | 56 | 1013.9 |
| 20260508171644 | 21 | 261 | 1.6 | 6.4 | 0.00 | 0.03 | 0.00 | 57 | 1014.1 |
| 20260508171144 | 21 | 206 | 1.6 | 6.4 | 0.00 | 0.03 | 0.00 | 56 | 1014.2 |
| 20260508170644 | 21 | 98 | 0.0 | 1.6 | 0.00 | 0.03 | 0.00 | 57 | 1014.2 |
| 20260508170144 | 21 | 126 | 0.0 | 1.6 | 0.00 | 0.03 | 0.00 | 56 | 1014.2 |
| 20260508165642 | 20 | 43 | 0.0 | 0.0 | 0.00 | 0.03 | 0.00 | 58 | 1014.4 |
| 20260508165142 | 20 | 58 | 0.0 | 4.8 | 0.00 | 0.03 | 0.00 | 60 | 1014.2 |
| 20260508164642 | 20 | 202 | 0.0 | 4.8 | 0.00 | 0.03 | 0.00 | 56 | 1014.3 |
| 20260508163140 | 20 | 56 | 0.0 | 0.0 | 0.00 | 0.03 | 0.00 | 56 | 1014.5 |
| 20260508162140 | 20 | 213 | 1.6 | 6.4 | 0.00 | 0.03 | 0.00 | 56 | 1014.9 |
| 20260508161640 | 20 | 142 | 1.6 | 11.3 | 0.00 | 0.03 | 0.00 | 57 | 1015.3 |
| 20260508161139 | 20 | 96 | 3.2 | 11.3 | 0.00 | 0.03 | 0.00 | 62 | 1015.1 |
| 20260508155641 | 20 | 90 | 0.0 | 4.8 | 0.00 | 0.03 | 0.00 | 63 | 1015.1 |
| 20260508155140 | 20 | 63 | 1.6 | 6.4 | 0.00 | 0.03 | 0.00 | 61 | 1015.0 |
| 20260508154639 | 20 | 96 | 0.0 | 6.4 | 0.00 | 0.03 | 0.00 | 58 | 1015.2 |
| 20260508154140 | 20 | 78 | 0.0 | 3.2 | 0.00 | 0.03 | 0.00 | 60 | 1015.2 |
| 20260508153641 | 19 | 99 | 0.0 | 4.8 | 0.00 | 0.03 | 0.00 | 62 | 1015.4 |
| 20260508153139 | 19 | 71 | 0.0 | 6.4 | 0.00 | 0.03 | 0.00 | 62 | 1015.4 |
| 20260508152640 | 19 | 181 | 0.0 | 6.4 | 0.00 | 0.03 | 0.00 | 61 | 1015.6 |
| 20260508152140 | 19 | 111 | 1.6 | 11.3 | 0.00 | 0.03 | 0.00 | 60 | 1015.6 |
| 20260508151140 | 19 | 113 | 1.6 | 11.3 | 0.00 | 0.05 | 0.00 | 68 | 1015.4 |
| 20260508150641 | 18 | 23 | 1.6 | 11.3 | 0.00 | 0.05 | 0.00 | 63 | 1015.4 |
| 20260508150140 | 18 | 69 | 1.6 | 6.4 | 0.00 | 0.30 | 0.00 | 64 | 1015.4 |
| 20260508145639 | 18 | 92 | 1.6 | 6.4 | 0.00 | 0.56 | 0.00 | 70 | 1015.4 |
| 20260508145140 | 18 | 35 | 1.6 | 6.4 | 0.00 | 0.71 | 0.00 | 66 | 1015.4 |
| 20260508144136 | 18 | 129 | 0.0 | 4.8 | 0.00 | 0.81 | 0.00 | 69 | 1015.4 |
| 20260508143139 | 18 | 140 | 0.0 | 0.0 | 0.00 | 0.81 | 0.00 | 70 | 1015.7 |
| 20260508142637 | 18 | 114 | 0.0 | 1.6 | 0.00 | 0.81 | 0.00 | 67 | 1015.7 |
| 20260508142137 | 18 | 92 | 0.0 | 1.6 | 0.00 | 0.81 | 0.00 | 67 | 1015.8 |
| 20260508141635 | 18 | 198 | 0.0 | 0.0 | 0.00 | 0.81 | 0.00 | 66 | 1015.7 |
| 20260508140635 | 17 | 68 | 0.0 | 0.0 | 0.00 | 0.81 | 0.00 | 71 | 1015.6 |
| 20260508140136 | 17 | 348 | 0.0 | 0.0 | 0.00 | 0.81 | 0.00 | 70 | 1015.6 |
| 20260508135636 | 17 | 355 | 0.0 | 0.0 | 0.00 | 0.81 | 0.00 | 69 | 1015.6 |
| 20260508135136 | 17 | 101 | 0.0 | 0.0 | 0.00 | 0.84 | 0.00 | 68 | 1015.6 |
| 20260508134135 | 17 | 76 | 0.0 | 0.0 | 0.00 | 0.84 | 0.00 | 69 | 1015.7 |
| 20260508133636 | 17 | 41 | 0.0 | 0.0 | 0.00 | 0.84 | 0.00 | 71 | 1015.7 |
| 20260508133135 | 17 | 289 | 0.0 | 0.0 | 0.00 | 0.84 | 0.00 | 75 | 1015.7 |
| 20260508132136 | 17 | 284 | 0.0 | 0.0 | 0.00 | 0.84 | 0.00 | 75 | 1015.6 |
| 20260508131135 | 16 | 98 | 0.0 | 0.0 | 0.00 | 0.84 | 0.00 | 81 | 1015.6 |
| 20260508130633 | 16 | 98 | 0.0 | 0.0 | 0.00 | 0.86 | 0.00 | 84 | 1015.6 |
| 20260508130134 | 15 | 98 | 0.0 | 0.0 | 0.00 | 0.89 | 0.00 | 86 | 1015.4 |
| 20260508125133 | 15 | 348 | 0.0 | 0.0 | 0.00 | 0.97 | 0.00 | 86 | 1015.3 |
| 20260508124633 | 15 | 332 | 0.0 | 0.0 | 0.00 | 1.02 | 0.00 | 88 | 1015.3 |
| 20260508124133 | 14 | 331 | 0.0 | 0.0 | 0.00 | 1.12 | 0.00 | 88 | 1015.3 |
| 20260508123133 | 13 | 332 | 0.0 | 0.0 | 0.00 | 1.14 | 0.00 | 91 | 1015.3 |
| 20260508122632 | 13 | 331 | 0.0 | 0.0 | 0.00 | 1.14 | 0.00 | 91 | 1015.3 |
| 20260508122133 | 13 | 332 | 0.0 | 0.0 | 0.00 | 1.14 | 0.00 | 93 | 1015.3 |
| 20260508121631 | 13 | 332 | 0.0 | 0.0 | 0.00 | 1.17 | 0.00 | 93 | 1015.3 |
| 20260508121132 | 13 | 331 | 0.0 | 0.0 | 0.00 | 1.17 | 0.00 | 94 | 1015.2 |
| 20260508120632 | 13 | 331 | 0.0 | 0.0 | 0.00 | 1.19 | 0.00 | 95 | 1015.1 |
| 20260508120131 | 12 | 332 | 0.0 | 0.0 | 0.00 | 1.24 | 0.00 | 95 | 1015.1 |
| 20260508115632 | 12 | 332 | 0.0 | 0.0 | 0.00 | 1.37 | 0.00 | 95 | 1015.1 |
| 20260508115131 | 12 | 331 | 0.0 | 0.0 | 0.00 | 1.52 | 0.00 | 95 | 1015.1 |
| 20260508114631 | 12 | 332 | 0.0 | 0.0 | 0.00 | 2.13 | 0.00 | 94 | 1015.1 |
| 20260508114132 | 11 | 332 | 0.0 | 0.0 | 0.00 | 2.64 | 0.00 | 94 | 1014.8 |
| 20260508113629 | 11 | 331 | 0.0 | 0.0 | 0.00 | 3.35 | 0.00 | 94 | 1014.7 |
| 20260508113130 | 11 | 331 | 0.0 | 0.0 | 0.00 | 3.76 | 0.00 | 94 | 1014.6 |
| 20260508112627 | 11 | 332 | 0.0 | 0.0 | 0.00 | 4.32 | 0.00 | 94 | 1014.4 |
| 20260508112128 | 11 | 331 | 0.0 | 0.0 | 0.00 | 4.72 | 0.00 | 94 | 1014.3 |
| 20260508111627 | 11 | 332 | 0.0 | 0.0 | 0.00 | 4.88 | 0.00 | 94 | 1014.1 |
| 20260508111127 | 11 | 332 | 0.0 | 0.0 | 0.00 | 4.90 | 0.00 | 94 | 1014.1 |
| 20260508110627 | 11 | 332 | 0.0 | 0.0 | 0.00 | 4.95 | 0.00 | 94 | 1014.0 |
| 20260508110127 | 11 | 331 | 0.0 | 0.0 | 0.00 | 4.95 | 0.00 | 94 | 1013.8 |
| 20260508105627 | 11 | 331 | 0.0 | 0.0 | 0.00 | 4.95 | 0.00 | 94 | 1013.6 |
| 20260508105128 | 11 | 332 | 0.0 | 0.0 | 0.00 | 4.98 | 0.00 | 94 | 1013.7 |
| 20260508104625 | 11 | 331 | 0.0 | 0.0 | 0.00 | 4.98 | 0.00 | 94 | 1013.7 |
| 20260508104126 | 11 | 332 | 0.0 | 0.0 | 0.00 | 4.98 | 0.00 | 94 | 1013.5 |
| 20260508103623 | 11 | 332 | 0.0 | 0.0 | 0.00 | 5.00 | 0.00 | 94 | 1013.3 |
| 20260508103124 | 11 | 331 | 0.0 | 0.0 | 0.00 | 5.00 | 0.00 | 94 | 1013.3 |
| 20260508102622 | 11 | 331 | 0.0 | 0.0 | 0.00 | 5.00 | 0.00 | 94 | 1013.2 |
| 20260508102124 | 11 | 332 | 0.0 | 0.0 | 0.00 | 5.00 | 0.00 | 94 | 1013.2 |
| 20260508101123 | 11 | 332 | 0.0 | 0.0 | 0.00 | 5.00 | 0.00 | 94 | 1012.8 |
| 20260508100121 | 11 | 331 | 0.0 | 0.0 | 0.00 | 5.00 | 0.00 | 93 | 1013.0 |
| 20260508095620 | 11 | 332 | 0.0 | 0.0 | 0.00 | 5.00 | 0.00 | 93 | 1012.9 |
| 20260508094621 | 11 | 332 | 0.0 | 0.0 | 0.00 | 5.00 | 0.00 | 93 | 1012.9 |
| 20260508094120 | 11 | 331 | 0.0 | 0.0 | 0.00 | 5.00 | 0.00 | 93 | 1012.8 |
| 20260508093620 | 11 | 332 | 0.0 | 0.0 | 0.00 | 5.00 | 0.00 | 93 | 1012.7 |
| 20260508093121 | 11 | 332 | 0.0 | 0.0 | 0.00 | 5.05 | 0.00 | 93 | 1012.7 |
| 20260508092622 | 11 | 332 | 0.0 | 0.0 | 0.00 | 5.11 | 0.00 | 93 | 1012.7 |
| 20260508092122 | 12 | 331 | 0.0 | 0.0 | 0.00 | 5.13 | 0.00 | 93 | 1012.6 |
| 20260508091618 | 12 | 332 | 0.0 | 0.0 | 0.00 | 5.18 | 0.00 | 93 | 1012.6 |
| 20260508091118 | 12 | 332 | 0.0 | 0.0 | 0.00 | 5.21 | 0.00 | 93 | 1012.6 |
| 20260508090119 | 12 | 332 | 0.0 | 0.0 | 0.00 | 5.33 | 0.00 | 93 | 1012.6 |
| 20260508085619 | 12 | 332 | 0.0 | 0.0 | 0.00 | 5.41 | 0.00 | 93 | 1012.6 |
| 20260508085118 | 12 | 332 | 0.0 | 0.0 | 0.00 | 5.41 | 0.00 | 93 | 1012.5 |
| 20260508084618 | 12 | 331 | 0.0 | 0.0 | 0.00 | 5.44 | 0.00 | 93 | 1012.4 |
| 20260508083117 | 12 | 331 | 0.0 | 0.0 | 0.00 | 5.46 | 0.00 | 93 | 1012.4 |
| 20260508082616 | 12 | 332 | 0.0 | 0.0 | 0.00 | 5.46 | 0.00 | 93 | 1012.4 |
| 20260508082116 | 12 | 332 | 0.0 | 0.0 | 0.00 | 5.46 | 0.00 | 93 | 1012.5 |
| 20260508081616 | 12 | 331 | 0.0 | 0.0 | 0.00 | 5.46 | 0.00 | 93 | 1012.5 |
| 20260508081117 | 12 | 332 | 0.0 | 0.0 | 0.00 | 5.46 | 0.00 | 93 | 1012.4 |
| 20260508080616 | 12 | 332 | 0.0 | 0.0 | 0.00 | 5.46 | 0.00 | 93 | 1012.3 |
| 20260508080118 | 12 | 332 | 0.0 | 0.0 | 0.00 | 5.46 | 0.00 | 93 | 1012.1 |
| 20260508075614 | 12 | 331 | 0.0 | 0.0 | 0.00 | 5.46 | 0.00 | 93 | 1012.1 |
| 20260508075114 | 12 | 332 | 0.0 | 0.0 | 0.00 | 5.46 | 0.00 | 93 | 1012.0 |
| 20260508074614 | 12 | 332 | 0.0 | 0.0 | 0.00 | 5.46 | 0.00 | 93 | 1012.0 |
| 20260508074114 | 12 | 331 | 0.0 | 0.0 | 0.00 | 5.46 | 0.00 | 93 | 1012.2 |
| 20260508073615 | 12 | 332 | 0.0 | 0.0 | 0.00 | 5.49 | 0.00 | 93 | 1012.3 |
| 20260508073113 | 13 | 332 | 0.0 | 0.0 | 0.00 | 5.49 | 0.00 | 93 | 1012.2 |
| 20260508072614 | 13 | 332 | 0.0 | 0.0 | 0.00 | 5.49 | 0.00 | 93 | 1012.3 |
| 20260508072112 | 13 | 331 | 0.0 | 0.0 | 0.00 | 5.49 | 0.00 | 93 | 1012.2 |
| 20260508071612 | 13 | 332 | 0.0 | 0.0 | 0.00 | 5.49 | 0.00 | 93 | 1012.2 |
| 20260508071113 | 13 | 332 | 0.0 | 0.0 | 0.00 | 5.49 | 0.00 | 93 | 1012.3 |
| 20260508070612 | 13 | 331 | 0.0 | 0.0 | 0.00 | 5.49 | 0.00 | 93 | 1012.5 |
| 20260508070112 | 13 | 332 | 0.0 | 0.0 | 0.00 | 5.49 | 0.00 | 93 | 1012.5 |
| 20260508065112 | 13 | 331 | 0.0 | 0.0 | 0.00 | 5.49 | 0.00 | 93 | 1012.6 |
| 20260508064611 | 13 | 331 | 0.0 | 0.0 | 0.00 | 5.49 | 0.00 | 92 | 1012.8 |
| 20260508064112 | 13 | 332 | 0.0 | 0.0 | 0.00 | 5.54 | 0.00 | 92 | 1012.5 |
| 20260508063613 | 13 | 332 | 0.0 | 0.0 | 0.00 | 5.56 | 0.00 | 92 | 1012.7 |
| 20260508063110 | 13 | 332 | 0.0 | 0.0 | 0.00 | 5.61 | 0.00 | 92 | 1012.8 |
| 20260508062609 | 13 | 332 | 0.0 | 0.0 | 0.00 | 5.64 | 0.00 | 92 | 1012.8 |
| 20260508062111 | 13 | 332 | 0.0 | 0.0 | 0.00 | 5.66 | 0.00 | 92 | 1012.9 |
| 20260508061610 | 13 | 331 | 0.0 | 0.0 | 0.00 | 5.69 | 0.00 | 92 | 1012.8 |
| 20260508061110 | 13 | 331 | 0.0 | 0.0 | 0.00 | 5.71 | 0.00 | 92 | 1012.9 |
| 20260508060610 | 13 | 332 | 0.0 | 0.0 | 0.00 | 5.74 | 0.00 | 92 | 1012.9 |
| 20260508060111 | 13 | 332 | 0.0 | 0.0 | 0.00 | 5.74 | 0.00 | 92 | 1012.8 |
| 20260508055611 | 13 | 331 | 0.0 | 0.0 | 0.00 | 5.74 | 0.00 | 92 | 1013.0 |
| 20260508054608 | 13 | 332 | 0.0 | 0.0 | 0.00 | 5.79 | 0.00 | 92 | 1012.6 |
| 20260508054108 | 13 | 331 | 0.0 | 0.0 | 0.00 | 5.82 | 0.00 | 91 | 1012.9 |
| 20260508053608 | 13 | 331 | 0.0 | 0.0 | 0.00 | 5.84 | 0.00 | 91 | 1012.9 |
| 20260508052605 | 14 | 331 | 0.0 | 0.0 | 0.00 | 5.89 | 0.00 | 91 | 1013.0 |
| 20260508052106 | 14 | 332 | 0.0 | 0.0 | 0.00 | 5.92 | 0.00 | 91 | 1012.9 |
| 20260508051604 | 14 | 332 | 0.0 | 0.0 | 0.00 | 5.97 | 0.00 | 90 | 1013.1 |
| 20260508051104 | 14 | 332 | 0.0 | 0.0 | 0.00 | 6.07 | 0.00 | 90 | 1013.0 |
| 20260508050604 | 14 | 331 | 0.0 | 0.0 | 0.00 | 6.15 | 0.00 | 90 | 1013.0 |
| 20260508045605 | 15 | 331 | 0.0 | 0.0 | 0.00 | 6.25 | 0.00 | 89 | 1013.1 |
| 20260508045103 | 15 | 332 | 0.0 | 0.0 | 0.00 | 6.30 | 0.00 | 89 | 1013.1 |
| 20260508044601 | 15 | 332 | 0.0 | 0.0 | 0.00 | 6.32 | 0.00 | 89 | 1013.1 |
| 20260508044101 | 15 | 331 | 0.0 | 0.0 | 0.00 | 6.38 | 0.00 | 89 | 1012.9 |
| 20260508043602 | 15 | 332 | 0.0 | 0.0 | 0.00 | 6.40 | 0.00 | 88 | 1013.0 |
| 20260508043101 | 15 | 332 | 0.0 | 0.0 | 0.00 | 6.43 | 0.00 | 88 | 1012.8 |
| 20260508042602 | 15 | 332 | 0.0 | 0.0 | 0.00 | 6.43 | 0.00 | 88 | 1012.8 |
| 20260508042101 | 15 | 331 | 0.0 | 0.0 | 0.00 | 6.45 | 0.00 | 87 | 1012.7 |
| 20260508041602 | 16 | 332 | 0.0 | 0.0 | 0.00 | 6.45 | 0.00 | 86 | 1012.6 |
| 20260508041102 | 16 | 332 | 0.0 | 0.0 | 0.00 | 6.45 | 0.00 | 86 | 1012.8 |
| 20260508040602 | 16 | 332 | 0.0 | 0.0 | 0.00 | 6.45 | 0.00 | 85 | 1013.0 |
| 20260508035559 | 16 | 332 | 0.0 | 0.0 | 0.00 | 6.48 | 6.48 | 84 | 1012.9 |
| 20260508035100 | 16 | 332 | 0.0 | 0.0 | 0.00 | 6.48 | 6.48 | 84 | 1012.8 |
| 20260508034600 | 16 | 331 | 0.0 | 0.0 | 0.00 | 6.50 | 6.48 | 83 | 1012.9 |
| 20260508033600 | 17 | 332 | 0.0 | 0.0 | 0.00 | 6.50 | 6.48 | 82 | 1012.8 |
| 20260508033058 | 17 | 331 | 0.0 | 0.0 | 0.00 | 6.50 | 6.48 | 82 | 1012.8 |
| 20260508032557 | 17 | 332 | 0.0 | 0.0 | 0.00 | 6.50 | 6.48 | 82 | 1012.7 |
| 20260508032058 | 17 | 332 | 0.0 | 0.0 | 0.00 | 6.50 | 6.48 | 83 | 1012.7 |
| 20260508031057 | 16 | 321 | 0.0 | 0.0 | 0.00 | 6.50 | 6.48 | 84 | 1012.5 |
| 20260508030557 | 16 | 321 | 0.0 | 0.0 | 0.00 | 6.58 | 6.48 | 85 | 1012.5 |
| 20260508025558 | 16 | 321 | 0.0 | 0.0 | 0.00 | 6.86 | 6.48 | 87 | 1012.4 |
| 20260508025057 | 16 | 321 | 0.0 | 0.0 | 0.00 | 6.86 | 6.48 | 87 | 1012.4 |
| 20260508024557 | 16 | 321 | 0.0 | 0.0 | 0.00 | 6.86 | 6.48 | 87 | 1012.4 |
| 20260508023055 | 16 | 321 | 0.0 | 0.0 | 0.00 | 6.96 | 6.48 | 86 | 1012.1 |
| 20260508022555 | 16 | 321 | 0.0 | 0.0 | 0.00 | 7.21 | 6.48 | 85 | 1012.3 |
| 20260508022054 | 17 | 321 | 0.0 | 0.0 | 0.00 | 7.21 | 6.48 | 85 | 1012.3 |
| 20260508021055 | 17 | 321 | 0.0 | 0.0 | 0.00 | 7.21 | 6.48 | 84 | 1012.3 |
| 20260508020555 | 17 | 321 | 0.0 | 0.0 | 0.00 | 7.21 | 6.48 | 83 | 1012.3 |
| 20260508015555 | 17 | 321 | 0.0 | 0.0 | 0.00 | 7.21 | 6.48 | 82 | 1012.1 |
| 20260508015053 | 17 | 321 | 0.0 | 0.0 | 0.00 | 7.24 | 6.48 | 82 | 1012.2 |
| 20260508014554 | 17 | 321 | 0.0 | 0.0 | 0.00 | 7.24 | 6.48 | 82 | 1012.1 |
| 20260508014053 | 17 | 321 | 0.0 | 0.0 | 0.00 | 7.26 | 6.48 | 81 | 1012.1 |
| 20260508013553 | 18 | 321 | 0.0 | 0.0 | 0.00 | 7.26 | 6.48 | 81 | 1012.0 |
| 20260508013053 | 18 | 321 | 0.0 | 0.0 | 0.00 | 7.26 | 6.48 | 81 | 1011.9 |
| 20260508012552 | 18 | 321 | 0.0 | 0.0 | 0.00 | 7.26 | 6.48 | 80 | 1011.8 |
| 20260508012050 | 18 | 321 | 0.0 | 0.0 | 0.00 | 7.26 | 6.48 | 80 | 1011.8 |
| 20260508011551 | 18 | 321 | 0.0 | 0.0 | 0.00 | 7.26 | 6.48 | 80 | 1011.7 |
| 20260508011051 | 18 | 321 | 0.0 | 0.0 | 0.00 | 7.26 | 6.48 | 78 | 1011.9 |
| 20260508010552 | 18 | 321 | 0.0 | 0.0 | 0.00 | 7.26 | 6.48 | 77 | 1011.8 |
| 20260508010050 | 19 | 322 | 0.0 | 0.0 | 0.00 | 7.26 | 6.48 | 78 | 1011.7 |
| 20260508005051 | 19 | 318 | 0.0 | 0.0 | 0.00 | 7.26 | 6.48 | 79 | 1011.3 |
| 20260508004549 | 19 | 319 | 0.0 | 0.0 | 0.00 | 7.26 | 6.48 | 80 | 1011.3 |
| 20260508004048 | 19 | 318 | 0.0 | 0.0 | 0.00 | 7.26 | 6.48 | 78 | 1011.2 |
| 20260508003549 | 19 | 319 | 0.0 | 0.0 | 0.00 | 7.26 | 6.48 | 79 | 1011.2 |
| 20260508003050 | 20 | 318 | 0.0 | 0.0 | 0.00 | 7.26 | 6.48 | 80 | 1011.0 |
| 20260508002549 | 20 | 328 | 0.0 | 0.0 | 0.00 | 7.26 | 6.48 | 81 | 1011.0 |
| 20260508002048 | 20 | 327 | 0.0 | 0.0 | 0.00 | 7.26 | 6.48 | 80 | 1011.0 |
| 20260508001549 | 20 | 328 | 0.0 | 0.0 | 0.00 | 7.26 | 6.48 | 80 | 1011.0 |
| 20260508001049 | 20 | 327 | 0.0 | 0.0 | 0.00 | 7.26 | 6.48 | 79 | 1010.8 |
| 20260508000548 | 20 | 328 | 0.0 | 0.0 | 0.00 | 7.26 | 6.48 | 79 | 1010.7 |
| 20260507235548 | 21 | 327 | 0.0 | 0.0 | 0.00 | 7.26 | 6.48 | 77 | 1010.6 |
| 20260507235048 | 21 | 327 | 0.0 | 0.0 | 0.00 | 7.26 | 6.48 | 76 | 1010.6 |
| 20260507234549 | 21 | 326 | 0.0 | 4.8 | 0.00 | 7.26 | 6.48 | 77 | 1010.5 |
| 20260507234050 | 21 | 327 | 0.0 | 4.8 | 0.00 | 7.26 | 6.48 | 75 | 1010.5 |
| 20260507233548 | 21 | 325 | 1.6 | 3.2 | 0.00 | 7.26 | 6.48 | 74 | 1010.5 |
| 20260507233050 | 22 | 326 | 1.6 | 3.2 | 0.00 | 7.26 | 6.48 | 73 | 1010.4 |
| 20260507232549 | 22 | 314 | 1.6 | 6.4 | 0.00 | 7.26 | 6.48 | 73 | 1010.3 |
| 20260507232048 | 22 | 288 | 1.6 | 6.4 | 0.00 | 7.26 | 6.48 | 70 | 1010.2 |